Time,TemperatureF,DewpointF,PressureIn,WindDirection,WindDirectionDegrees,WindSpeedMPH,WindSpeedGustMPH,Humidity,HourlyPrecipIn,Conditions,Clouds,dailyrainin,SoftwareType,DateUTC
2013-03-30 00:00:00,-999.0,-99.9,30.20,North,-999,-999.0,-999.0,-999,-99.99,,,0.00,weatherlink.com 1.10,2013-03-30 04:00:00,
2013-03-30 00:15:00,-999.0,-99.9,30.20,North,-999,-999.0,-999.0,-999,-99.99,,,0.00,weatherlink.com 1.10,2013-03-30 04:15:00,
2013-03-30 00:30:00,-999.0,-99.9,30.20,North,-999,-999.0,-999.0,-999,-99.99,,,0.00,weatherlink.com 1.10,2013-03-30 04:30:00,
2013-03-30 00:45:00,-999.0,-99.9,30.19,North,-999,-999.0,-999.0,-999,-99.99,,,0.00,weatherlink.com 1.10,2013-03-30 04:45:00,
2013-03-30 01:00:00,-999.0,-99.9,30.19,North,-999,-999.0,-999.0,-999,-99.99,,,0.00,weatherlink.com 1.10,2013-03-30 05:00:00,
2013-03-30 01:15:00,-999.0,-99.9,30.19,North,-999,-999.0,-999.0,-999,-99.99,,,0.00,weatherlink.com 1.10,2013-03-30 05:15:00,
2013-03-30 01:31:00,-999.0,-99.9,30.19,North,-999,-999.0,-999.0,-999,-99.99,,,0.00,weatherlink.com 1.10,2013-03-30 05:31:00,
2013-03-30 01:46:00,-999.0,-99.9,30.19,North,-999,-999.0,-999.0,-999,-99.99,,,0.00,weatherlink.com 1.10,2013-03-30 05:46:00,
2013-03-30 02:01:00,-999.0,-99.9,30.19,North,-999,-999.0,-999.0,-999,-99.99,,,0.00,weatherlink.com 1.10,2013-03-30 06:01:00,
2013-03-30 02:16:00,-999.0,-99.9,30.19,North,-999,-999.0,-999.0,-999,-99.99,,,0.00,weatherlink.com 1.10,2013-03-30 06:16:00,
2013-03-30 02:31:00,-999.0,-99.9,30.18,North,-999,-999.0,-999.0,-999,-99.99,,,0.00,weatherlink.com 1.10,2013-03-30 06:31:00,
2013-03-30 02:46:00,-999.0,-99.9,30.18,North,-999,-999.0,-999.0,-999,-99.99,,,0.00,weatherlink.com 1.10,2013-03-30 06:46:00,
2013-03-30 03:01:00,-999.0,-99.9,30.18,North,-999,-999.0,-999.0,-999,-99.99,,,0.00,weatherlink.com 1.10,2013-03-30 07:01:00,
2013-03-30 03:16:00,-999.0,-99.9,30.17,North,-999,-999.0,-999.0,-999,-99.99,,,0.00,weatherlink.com 1.10,2013-03-30 07:16:00,
2013-03-30 03:31:00,-999.0,-99.9,30.17,North,-999,-999.0,-999.0,-999,-99.99,,,0.00,weatherlink.com 1.10,2013-03-30 07:31:00,
2013-03-30 03:46:00,-999.0,-99.9,30.17,North,-999,-999.0,-999.0,-999,-99.99,,,0.00,weatherlink.com 1.10,2013-03-30 07:46:00,
2013-03-30 04:01:00,-999.0,-99.9,30.16,North,-999,-999.0,-999.0,-999,-99.99,,,0.00,weatherlink.com 1.10,2013-03-30 08:01:00,
2013-03-30 04:16:00,-999.0,-99.9,30.16,North,-999,-999.0,-999.0,-999,-99.99,,,0.00,weatherlink.com 1.10,2013-03-30 08:16:00,
2013-03-30 04:31:00,-999.0,-99.9,30.16,North,-999,-999.0,-999.0,-999,-99.99,,,0.00,weatherlink.com 1.10,2013-03-30 08:31:00,
2013-03-30 04:46:00,-999.0,-99.9,30.15,North,-999,-999.0,-999.0,-999,-99.99,,,0.00,weatherlink.com 1.10,2013-03-30 08:46:00,
2013-03-30 05:02:00,-999.0,-99.9,30.14,North,-999,-999.0,-999.0,-999,-99.99,,,0.00,weatherlink.com 1.10,2013-03-30 09:02:00,
2013-03-30 05:17:00,-999.0,-99.9,30.14,North,-999,-999.0,-999.0,-999,-99.99,,,0.00,weatherlink.com 1.10,2013-03-30 09:17:00,
2013-03-30 05:32:00,-999.0,-99.9,30.14,North,-999,-999.0,-999.0,-999,-99.99,,,0.00,weatherlink.com 1.10,2013-03-30 09:32:00,
2013-03-30 05:47:00,-999.0,-99.9,30.14,North,-999,-999.0,-999.0,-999,-99.99,,,0.00,weatherlink.com 1.10,2013-03-30 09:47:00,
2013-03-30 06:02:00,-999.0,-99.9,30.14,North,-999,-999.0,-999.0,-999,-99.99,,,0.00,weatherlink.com 1.10,2013-03-30 10:02:00,
2013-03-30 06:17:00,-999.0,-99.9,30.14,North,-999,-999.0,-999.0,-999,-99.99,,,0.00,weatherlink.com 1.10,2013-03-30 10:17:00,
2013-03-30 06:32:00,-999.0,-99.9,30.13,North,-999,-999.0,-999.0,-999,-99.99,,,0.00,weatherlink.com 1.10,2013-03-30 10:32:00,
2013-03-30 06:47:00,-999.0,-99.9,30.13,North,-999,-999.0,-999.0,-999,-99.99,,,0.00,weatherlink.com 1.10,2013-03-30 10:47:00,
2013-03-30 07:17:00,-999.0,-99.9,30.12,North,-999,-999.0,-999.0,-999,-99.99,,,0.00,weatherlink.com 1.10,2013-03-30 11:17:00,
2013-03-30 07:32:00,-999.0,-99.9,30.12,North,-999,-999.0,-999.0,-999,-99.99,,,0.00,weatherlink.com 1.10,2013-03-30 11:32:00,
2013-03-30 07:47:00,-999.0,-99.9,30.12,North,-999,-999.0,-999.0,-999,-99.99,,,0.00,weatherlink.com 1.10,2013-03-30 11:47:00,
2013-03-30 08:03:00,-999.0,-99.9,30.12,North,-999,-999.0,-999.0,-999,-99.99,,,0.00,weatherlink.com 1.10,2013-03-30 12:03:00,
2013-03-30 08:18:00,-999.0,-99.9,30.12,North,-999,-999.0,-999.0,-999,-99.99,,,0.00,weatherlink.com 1.10,2013-03-30 12:18:00,
2013-03-30 08:33:00,30.0,22.0,30.12,NW,310,2.0,-999.0,72,-99.99,,,0.00,weatherlink.com 1.10,2013-03-30 12:33:00,
2013-03-30 08:48:00,31.0,22.0,30.11,NW,310,0.0,-999.0,70,-99.99,,,0.00,weatherlink.com 1.10,2013-03-30 12:48:00,
2013-03-30 09:03:00,32.1,23.0,30.11,NW,310,0.0,-999.0,69,-99.99,,,0.00,weatherlink.com 1.10,2013-03-30 13:03:00,
2013-03-30 09:18:00,33.6,24.0,30.11,NW,310,0.0,-999.0,68,-99.99,,,0.00,weatherlink.com 1.10,2013-03-30 13:18:00,
2013-03-30 09:33:00,34.4,25.0,30.11,NW,310,0.0,-999.0,68,-99.99,,,0.00,weatherlink.com 1.10,2013-03-30 13:33:00,
2013-03-30 09:48:00,34.4,25.0,30.11,NW,310,0.0,-999.0,68,-99.99,,,0.00,weatherlink.com 1.10,2013-03-30 13:48:00,
2013-03-30 10:03:00,36.4,26.0,30.10,NW,310,0.0,-999.0,65,-99.99,,,0.00,weatherlink.com 1.10,2013-03-30 14:03:00,
2013-03-30 10:18:00,35.4,25.0,30.10,NW,308,3.0,-999.0,66,-99.99,,,0.00,weatherlink.com 1.10,2013-03-30 14:18:00,
2013-03-30 10:33:00,36.5,27.0,30.09,NW,308,2.0,-999.0,68,-99.99,,,0.00,weatherlink.com 1.10,2013-03-30 14:33:00,
2013-03-30 10:48:00,37.6,27.0,30.08,NW,307,0.0,-999.0,65,-99.99,,,0.00,weatherlink.com 1.10,2013-03-30 14:48:00,
2013-03-30 11:03:00,40.1,24.0,30.07,NW,307,2.0,-999.0,54,-99.99,,,0.00,weatherlink.com 1.10,2013-03-30 15:03:00,
2013-03-30 11:33:00,41.6,26.0,30.06,NW,306,3.0,-999.0,55,-99.99,,,0.00,weatherlink.com 1.10,2013-03-30 15:33:00,
2013-03-30 11:48:00,42.0,25.0,30.05,SSW,211,4.0,-999.0,52,-99.99,,,0.00,weatherlink.com 1.10,2013-03-30 15:48:00,
2013-03-30 12:03:00,41.5,27.0,30.05,SSW,210,4.0,-999.0,57,-99.99,,,0.00,weatherlink.com 1.10,2013-03-30 16:03:00,
2013-03-30 12:18:00,41.3,26.0,30.04,SSW,210,2.0,-999.0,56,-99.99,,,0.00,weatherlink.com 1.10,2013-03-30 16:18:00,
2013-03-30 12:33:00,41.0,27.0,30.03,SSW,210,1.0,-999.0,59,-99.99,,,0.00,weatherlink.com 1.10,2013-03-30 16:33:00,
2013-03-30 12:48:00,40.9,29.0,30.02,SSW,210,1.0,-999.0,62,-99.99,,,0.00,weatherlink.com 1.10,2013-03-30 16:48:00,
2013-03-30 13:03:00,41.0,27.0,30.01,SSW,210,0.0,-999.0,58,-99.99,,,0.00,weatherlink.com 1.10,2013-03-30 17:03:00,
2013-03-30 13:18:00,41.5,26.0,30.01,SSW,210,1.0,-999.0,55,-99.99,,,0.00,weatherlink.com 1.10,2013-03-30 17:18:00,
2013-03-30 13:33:00,44.1,26.0,30.00,SSW,210,0.0,-999.0,50,-99.99,,,0.00,weatherlink.com 1.10,2013-03-30 17:33:00,
2013-03-30 13:48:00,45.0,26.0,29.99,SSW,211,0.0,-999.0,48,-99.99,,,0.00,weatherlink.com 1.10,2013-03-30 17:48:00,
2013-03-30 14:04:00,45.0,27.0,29.98,SSW,211,4.0,-999.0,50,-99.99,,,0.00,weatherlink.com 1.10,2013-03-30 18:04:00,
2013-03-30 14:19:00,45.8,28.0,29.98,SSW,207,3.0,-999.0,50,-99.99,,,0.00,weatherlink.com 1.10,2013-03-30 18:19:00,
2013-03-30 14:34:00,42.7,29.0,29.98,ESE,106,6.0,-999.0,59,-99.99,,,0.00,weatherlink.com 1.10,2013-03-30 18:34:00,
2013-03-30 14:49:00,39.6,30.0,29.98,ESE,107,0.0,-999.0,68,-99.99,,,0.00,weatherlink.com 1.10,2013-03-30 18:49:00,
2013-03-30 15:04:00,41.7,30.0,29.98,ESE,107,0.0,-999.0,64,-99.99,,,0.00,weatherlink.com 1.10,2013-03-30 19:04:00,
2013-03-30 15:19:00,40.2,30.0,29.97,ESE,107,0.0,-999.0,66,-99.99,,,0.00,weatherlink.com 1.10,2013-03-30 19:19:00,
2013-03-30 15:34:00,40.5,30.0,29.97,ESE,107,0.0,-999.0,67,-99.99,,,0.00,weatherlink.com 1.10,2013-03-30 19:34:00,
2013-03-30 15:49:00,40.1,31.0,29.98,ESE,107,1.0,-999.0,69,-99.99,,,0.00,weatherlink.com 1.10,2013-03-30 19:49:00,
2013-03-30 16:04:00,39.4,28.0,29.97,ESE,110,2.0,-999.0,64,-99.99,,,0.00,weatherlink.com 1.10,2013-03-30 20:04:00,
2013-03-30 16:19:00,38.2,28.0,29.97,WNW,282,5.0,-999.0,68,-99.99,,,0.00,weatherlink.com 1.10,2013-03-30 20:19:00,
2013-03-30 16:34:00,38.9,29.0,29.95,WNW,290,0.0,-999.0,67,-99.99,,,0.00,weatherlink.com 1.10,2013-03-30 20:34:00,
2013-03-30 16:49:00,37.8,30.0,29.95,West,277,5.0,-999.0,72,-99.99,,,0.00,weatherlink.com 1.10,2013-03-30 20:49:00,
2013-03-30 17:04:00,40.9,29.0,29.94,WSW,257,0.0,-999.0,64,-99.99,,,0.00,weatherlink.com 1.10,2013-03-30 21:04:00,
2013-03-30 17:19:00,42.0,30.0,29.92,South,177,5.0,-999.0,62,-99.99,,,0.00,weatherlink.com 1.10,2013-03-30 21:19:00,
2013-03-30 17:34:00,41.1,28.0,29.92,WSW,251,5.0,-999.0,61,-99.99,,,0.00,weatherlink.com 1.10,2013-03-30 21:34:00,
2013-03-30 17:49:00,40.8,28.0,29.92,West,277,14.0,-999.0,60,-99.99,,,0.00,weatherlink.com 1.10,2013-03-30 21:49:00,
2013-03-30 18:04:00,38.4,29.0,29.91,West,280,5.0,-999.0,68,-99.99,,,0.00,weatherlink.com 1.10,2013-03-30 22:04:00,
2013-03-30 18:19:00,38.0,29.0,29.90,West,280,1.0,-999.0,71,-99.99,,,0.00,weatherlink.com 1.10,2013-03-30 22:19:00,
2013-03-30 18:34:00,38.4,29.0,29.89,West,280,1.0,-999.0,70,-99.99,,,0.00,weatherlink.com 1.10,2013-03-30 22:34:00,
2013-03-30 18:49:00,38.2,30.0,29.89,WNW,286,5.0,-999.0,73,-99.99,,,0.00,weatherlink.com 1.10,2013-03-30 22:49:00,
2013-03-30 19:04:00,37.9,31.0,29.89,West,277,6.0,-999.0,77,-99.99,,,0.00,weatherlink.com 1.10,2013-03-30 23:04:00,
2013-03-30 19:19:00,38.4,32.0,29.89,West,278,7.0,-999.0,78,-99.99,,,0.00,weatherlink.com 1.10,2013-03-30 23:19:00,
2013-03-30 19:34:00,-999.0,-99.9,29.88,North,-999,-999.0,-999.0,-999,-99.99,,,0.00,weatherlink.com 1.10,2013-03-30 23:34:00,
2013-03-30 19:49:00,-999.0,-99.9,29.88,North,-999,-999.0,-999.0,-999,-99.99,,,0.00,weatherlink.com 1.10,2013-03-30 23:49:00,
2013-03-30 20:04:00,-999.0,-99.9,29.87,North,-999,-999.0,-999.0,-999,-99.99,,,0.00,weatherlink.com 1.10,2013-03-31 00:04:00,
2013-03-30 20:19:00,-999.0,-99.9,29.87,North,-999,-999.0,-999.0,-999,-99.99,,,0.00,weatherlink.com 1.10,2013-03-31 00:19:00,
2013-03-30 20:34:00,-999.0,-99.9,29.86,North,-999,-999.0,-999.0,-999,-99.99,,,0.00,weatherlink.com 1.10,2013-03-31 00:34:00,
2013-03-30 20:49:00,-999.0,-99.9,29.86,North,-999,-999.0,-999.0,-999,-99.99,,,0.00,weatherlink.com 1.10,2013-03-31 00:49:00,
2013-03-30 21:04:00,-999.0,-99.9,29.85,North,-999,-999.0,-999.0,-999,-99.99,,,0.00,weatherlink.com 1.10,2013-03-31 01:04:00,
2013-03-30 21:20:00,-999.0,-99.9,29.84,North,-999,-999.0,-999.0,-999,-99.99,,,0.00,weatherlink.com 1.10,2013-03-31 01:20:00,
2013-03-30 21:35:00,-999.0,-99.9,29.84,North,-999,-999.0,-999.0,-999,-99.99,,,0.00,weatherlink.com 1.10,2013-03-31 01:35:00,
2013-03-30 21:50:00,-999.0,-99.9,29.84,North,-999,-999.0,-999.0,-999,-99.99,,,0.00,weatherlink.com 1.10,2013-03-31 01:50:00,
2013-03-30 22:05:00,-999.0,-99.9,29.83,North,-999,-999.0,-999.0,-999,-99.99,,,0.00,weatherlink.com 1.10,2013-03-31 02:05:00,
2013-03-30 22:20:00,-999.0,-99.9,29.82,North,-999,-999.0,-999.0,-999,-99.99,,,0.00,weatherlink.com 1.10,2013-03-31 02:20:00,
2013-03-30 22:35:00,-999.0,-99.9,29.82,North,-999,-999.0,-999.0,-999,-99.99,,,0.00,weatherlink.com 1.10,2013-03-31 02:35:00,
2013-03-30 22:50:00,-999.0,-99.9,29.82,North,-999,-999.0,-999.0,-999,-99.99,,,0.00,weatherlink.com 1.10,2013-03-31 02:50:00,
2013-03-30 23:05:00,-999.0,-99.9,29.81,North,-999,-999.0,-999.0,-999,-99.99,,,0.00,weatherlink.com 1.10,2013-03-31 03:05:00,
2013-03-30 23:20:00,-999.0,-99.9,29.80,North,-999,-999.0,-999.0,-999,-99.99,,,0.00,weatherlink.com 1.10,2013-03-31 03:20:00,
2013-03-30 23:35:00,-999.0,-99.9,29.78,North,-999,-999.0,-999.0,-999,-99.99,,,0.00,weatherlink.com 1.10,2013-03-31 03:35:00,
2013-03-30 23:50:00,-999.0,-99.9,29.77,North,-999,-999.0,-999.0,-999,-99.99,,,0.00,weatherlink.com 1.10,2013-03-31 03:50:00,